Location: Pulvis Stellarum Observatory
(41.6962°N, 71.4263°W)
Time: 23:35:57
(UTC-04:00)

Cosmos 1758 - Visible Passes

Search period start: 26 September 2016 00:00
Search period end: 06 October 2016 00:00
Orbit: 544 x 564 km, 82.5° (Epoch: 26 September)

Date Brightness Start Highest point End Pass type
(mag) Time Alt. Az. Time Alt. Az. Time Alt. Az.
26 Sep 6.7 05:56:54 10° NE 05:59:03 14° ENE 06:01:11 10° ESE visible
26 Sep 3.2 19:52:24 10° S 19:56:29 79° E 20:00:36 10° N visible
27 Sep 6.6 05:53:35 10° NNE 05:56:04 15° ENE 05:58:32 10° ESE visible
27 Sep 3.3 19:49:22 10° S 19:53:26 89° ESE 19:57:34 10° N visible
28 Sep 6.5 05:50:19 10° NNE 05:53:05 17° ENE 05:55:50 10° ESE visible
28 Sep 3.4 19:46:20 10° S 19:50:24 80° W 19:54:33 10° N visible
29 Sep 6.5 05:47:06 10° NNE 05:50:06 19° ENE 05:53:04 10° ESE visible
29 Sep 3.7 19:43:19 10° SSW 19:47:22 70° W 19:51:30 10° N visible
30 Sep 6.3 05:43:54 10° NNE 05:47:06 22° ENE 05:50:16 10° SE visible
30 Sep 3.9 19:40:19 10° SSW 19:44:21 61° W 19:48:26 10° N visible
01 Oct 6.0 05:40:44 10° NNE 05:44:07 24° ENE 05:47:27 10° SE visible
01 Oct 4.2 19:37:20 10° SSW 19:41:20 53° W 19:45:22 10° N visible
02 Oct 5.8 05:37:35 10° NNE 05:41:06 27° ENE 05:44:35 10° SE visible
02 Oct 4.5 19:34:22 10° SSW 19:38:18 46° WNW 19:42:17 10° N visible
03 Oct 5.5 05:34:26 10° NNE 05:38:05 30° ENE 05:41:41 10° SE visible
03 Oct 4.8 19:31:24 10° SSW 19:35:17 41° WNW 19:39:12 10° N visible
04 Oct 5.2 05:31:19 10° N 05:35:05 34° ENE 05:38:47 10° SE visible
04 Oct 5.1 19:28:29 10° SW 19:32:16 36° WNW 19:36:05 10° N visible
05 Oct 4.9 05:28:13 10° N 05:32:04 39° ENE 05:35:51 10° SSE visible
05 Oct 5.4 19:25:34 10° SW 19:29:15 32° WNW 19:32:58 10° NNW visible
